TimePDT,TemperatureF,Dew PointF,Humidity,Sea Level PressureIn,VisibilityMPH,Wind Direction,Wind SpeedMPH,Gust SpeedMPH,PrecipitationIn,Events,Conditions,WindDirDegrees,DateUTC
12:15 AM,37.4,24.8,60,30.31,10.0,Calm,Calm,-,N/A,,Clear,0,2014-03-09 08:15:00
12:35 AM,37.4,26.6,65,30.32,10.0,Calm,Calm,-,N/A,,Clear,0,2014-03-09 08:35:00
12:55 AM,39.2,23.0,52,30.32,10.0,Calm,Calm,-,N/A,,Clear,0,2014-03-09 08:55:00
1:15 AM,39.2,24.8,56,30.32,10.0,NNW,3.5,-,N/A,,Clear,330,2014-03-09 09:15:00
1:35 AM,39.2,26.6,61,30.32,10.0,Calm,Calm,-,N/A,,Scattered Clouds,0,2014-03-09 09:35:00
1:55 AM,39.2,26.6,61,30.31,10.0,East,3.5,-,N/A,,Clear,80,2014-03-09 09:55:00
3:15 AM,37.4,26.6,65,30.31,10.0,Calm,Calm,-,N/A,,Scattered Clouds,0,2014-03-09 10:15:00
3:35 AM,35.6,26.6,70,30.31,10.0,East,3.5,-,N/A,,Mostly Cloudy,80,2014-03-09 10:35:00
3:55 AM,39.2,23.0,52,30.31,10.0,Calm,Calm,-,N/A,,Overcast,0,2014-03-09 10:55:00
4:15 AM,37.4,24.8,60,30.30,10.0,Calm,Calm,-,N/A,,Overcast,0,2014-03-09 11:15:00
4:30 AM,41.0,21.2,45,30.30,10.0,Calm,Calm,-,N/A,,Overcast,0,2014-03-09 11:30:00
4:55 AM,37.4,23.0,56,30.29,10.0,North,5.8,-,N/A,,Scattered Clouds,360,2014-03-09 11:55:00
5:15 AM,41.0,21.2,45,30.30,10.0,Calm,Calm,-,N/A,,Mostly Cloudy,0,2014-03-09 12:15:00
5:35 AM,39.2,23.0,52,30.30,10.0,Calm,Calm,-,N/A,,Overcast,0,2014-03-09 12:35:00
5:55 AM,41.0,19.4,42,30.29,10.0,Calm,Calm,-,N/A,,Overcast,0,2014-03-09 12:55:00
6:15 AM,39.2,21.2,49,30.29,10.0,Calm,Calm,-,N/A,,Overcast,0,2014-03-09 13:15:00
6:35 AM,42.8,21.2,42,30.29,10.0,East,3.5,-,N/A,,Overcast,80,2014-03-09 13:35:00
6:55 AM,42.8,21.2,42,30.28,10.0,Calm,Calm,-,N/A,,Overcast,0,2014-03-09 13:55:00
8:55 AM,44.6,24.8,46,30.30,10.0,Calm,Calm,-,N/A,,Overcast,0,2014-03-09 15:55:00
9:55 AM,50.0,24.8,37,30.29,10.0,Calm,Calm,-,N/A,,Overcast,0,2014-03-09 16:55:00
10:55 AM,53.6,30.2,41,30.28,10.0,SSE,10.4,17.3,N/A,,Mostly Cloudy,160,2014-03-09 17:55:00
11:50 AM,55.4,28.4,36,30.27,10.0,South,13.8,23.0,N/A,,Mostly Cloudy,190,2014-03-09 18:50:00
12:55 PM,55.4,17.6,23,30.27,10.0,SSW,16.1,23.0,N/A,,Mostly Cloudy,200,2014-03-09 19:55:00
1:50 PM,53.6,17.6,24,30.26,10.0,SSW,20.7,27.6,N/A,,Mostly Cloudy,210,2014-03-09 20:50:00
2:50 PM,59.0,19.4,22,30.24,10.0,SW,17.3,25.3,N/A,,Mostly Cloudy,220,2014-03-09 21:50:00
3:55 PM,57.2,19.4,23,30.23,10.0,WSW,17.3,24.2,N/A,,Mostly Cloudy,240,2014-03-09 22:55:00
5:50 PM,55.4,21.2,26,30.21,10.0,SSW,13.8,-,N/A,,Mostly Cloudy,210,2014-03-10 00:50:00
5:55 PM,50.0,23.0,35,30.20,10.0,SSW,9.2,17.3,N/A,,Clear,210,2014-03-10 00:55:00
6:15 PM,50.0,23.0,35,30.21,10.0,SW,5.8,-,N/A,,Clear,220,2014-03-10 01:15:00
6:35 PM,48.2,23.0,37,30.20,10.0,SSW,9.2,-,N/A,,Clear,200,2014-03-10 01:35:00
6:55 PM,48.2,21.2,34,30.19,10.0,SSW,11.5,20.7,N/A,,Clear,200,2014-03-10 01:55:00
7:15 PM,46.4,19.4,34,30.19,10.0,SSW,15.0,20.7,N/A,,Clear,200,2014-03-10 02:15:00
7:35 PM,46.4,21.2,37,30.19,10.0,SSW,8.1,17.3,N/A,,Clear,210,2014-03-10 02:35:00
7:55 PM,44.6,19.4,37,30.19,10.0,SSW,12.7,-,N/A,,Clear,210,2014-03-10 02:55:00
8:15 PM,44.6,19.4,37,30.19,10.0,South,13.8,17.3,N/A,,Clear,190,2014-03-10 03:15:00
8:35 PM,44.6,19.4,37,30.19,10.0,South,10.4,-,N/A,,Clear,190,2014-03-10 03:35:00
8:55 PM,44.6,19.4,37,30.18,10.0,South,13.8,19.6,N/A,,Clear,190,2014-03-10 03:55:00
9:10 PM,44.6,19.4,37,30.19,10.0,SSW,8.1,19.6,N/A,,Clear,200,2014-03-10 04:10:00
9:35 PM,44.6,21.2,39,30.19,10.0,SSW,12.7,-,N/A,,Scattered Clouds,200,2014-03-10 04:35:00
9:55 PM,44.6,21.2,39,30.19,10.0,SSW,8.1,-,N/A,,Mostly Cloudy,200,2014-03-10 04:55:00
10:15 PM,44.6,19.4,37,30.19,10.0,South,17.3,23.0,N/A,,Mostly Cloudy,190,2014-03-10 05:15:00
10:35 PM,44.6,19.4,37,30.18,10.0,South,11.5,21.9,N/A,,Mostly Cloudy,190,2014-03-10 05:35:00
10:55 PM,44.6,19.4,37,30.18,10.0,South,13.8,19.6,N/A,,Overcast,190,2014-03-10 05:55:00
11:15 PM,44.6,19.4,37,30.17,10.0,South,8.1,27.6,N/A,,Overcast,180,2014-03-10 06:15:00
11:35 PM,44.6,19.4,37,30.17,10.0,South,15.0,-,N/A,,Mostly Cloudy,180,2014-03-10 06:35:00
11:55 PM,44.6,21.2,39,30.17,10.0,South,11.5,19.6,N/A,,Overcast,180,2014-03-10 06:55:00
12:15 AM,44.6,21.2,39,30.16,10.0,South,12.7,-,N/A,,Mostly Cloudy,190,2014-03-10 07:15:00
12:35 AM,44.6,23.0,43,30.16,10.0,South,12.7,18.4,N/A,,Mostly Cloudy,190,2014-03-10 07:35:00
12:55 AM,44.6,23.0,43,30.14,10.0,South,17.3,26.5,N/A,,Mostly Cloudy,180,2014-03-10 07:55:00